Weather History for Laramie, WY

Change the Weather History Date:

Wednesday, August 7, 2013

  Actual Average Record
Temperature  
Mean Temperature 62 °F 64 °F  
Max Temperature 76 °F 79 °F 90 °F (1980)
Min Temperature 48 °F 48 °F 39 °F (1996)
Degree Days  
Heating Degree Days 3 2  
Month to date heating degree days 4 14  
Since 1 June heating degree days 129 324  
Since 1 July heating degree days 26 83  
Cooling Degree Days 0 1  
Month to date cooling degree days 10 7  
Year to date cooling degree days 104 54  
Since 1 June cooling degree days 104 54  
Growing Degree Days 10 (Base 50)    
Moisture  
Dew Point 44 °F    
Average Humidity 58    
Maximum Humidity 93    
Minimum Humidity 22    
Precipitation  
Precipitation 0.00 in 0.04 in 1.06 in (2002)
Month to date precipitation 0.12 0.33  
Year to date precipitation 5.42 7.25  
Sea Level Pressure  
Sea Level Pressure 29.88 in    
Wind  
Wind Speed 12 mph (South)    
Max Wind Speed 26 mph    
Max Gust Speed 32 mph    
Visibility 10 miles    
Events      
T = Trace of Precipitation, MM = Missing Value Source: NWS Daily Summary

Daily Weather History Graph

Daily Weather History Graph

Search for Another Location

Airport:

Trip Planner

Search our weather history database for the weather conditions in past years. The results will help you decide how hot, cold, wet, or windy it might be!

Date:

Astronomy

Aug. 07, 2013 Rise Set
Actual Time 6:04 AM MDT 8:12 PM MDT
Civil Twilight 5:33 AM MDT 8:42 PM MDT
Nautical Twilight 4:56 AM MDT 9:19 PM MDT
Astronomical Twilight 4:15 AM MDT 10:00 PM MDT
Moon 6:56 AM MDT (8/7) 8:19 PM MDT (8/7)
Length of Visible Light 15h 08m
Length of Day
14h 07m
New Moon, 1% of the Moon is Illuminated
Aug 7
New Moon
Aug 14
First Quarter
Aug 20
Full
Aug 28
Last Quarter
Sep 5
New

Hourly Weather History & Observations

Time (MDT) Temp. Dew Point Humidity Pressure Visibility Wind Dir Wind Speed Gust Speed Precip Events Conditions
12:53 AM 53.1 °F 39.9 °F 61% 29.89 in 10.0 mi South 8.1 mph - N/A   Clear
1:53 AM 55.9 °F 43.0 °F 62% 29.88 in 10.0 mi South 13.8 mph - N/A   Clear
2:53 AM 54.0 °F 44.1 °F 69% 29.89 in 10.0 mi South 11.5 mph - N/A   Clear
3:53 AM 52.0 °F 44.1 °F 74% 29.88 in 10.0 mi South 9.2 mph - N/A   Clear
4:53 AM 51.1 °F 45.0 °F 80% 29.89 in 10.0 mi South 10.4 mph - N/A   Clear
5:53 AM 48.0 °F 43.0 °F 83% 29.93 in 10.0 mi South 9.2 mph - N/A   Clear
6:53 AM 51.1 °F 42.1 °F 71% 29.93 in 10.0 mi South 6.9 mph - N/A   Clear
7:53 AM 57.9 °F 41.0 °F 53% 29.92 in 10.0 mi SW 6.9 mph - N/A   Clear
8:53 AM 63.0 °F 37.9 °F 40% 29.92 in 10.0 mi South 5.8 mph - N/A   Clear
9:53 AM 66.0 °F 39.0 °F 37% 29.91 in 10.0 mi West 3.5 mph - N/A   Clear
10:53 AM 73.0 °F 37.9 °F 28% 29.89 in 10.0 mi Calm Calm - N/A   Clear
11:53 AM 72.0 °F 44.1 °F 37% 29.89 in 10.0 mi Calm Calm - N/A   Clear
12:53 PM 73.9 °F 43.0 °F 33% 29.87 in 10.0 mi Variable 6.9 mph 16.1 mph N/A   Clear
1:53 PM 72.0 °F 45.0 °F 38% 29.86 in 10.0 mi SSE 16.1 mph - N/A   Partly Cloudy
2:53 PM 73.9 °F 34.0 °F 23% 29.84 in 10.0 mi SSW 13.8 mph - N/A   Clear
3:53 PM 73.0 °F 32.0 °F 22% 29.84 in 10.0 mi South 17.3 mph - N/A   Clear
4:53 PM 70.0 °F 46.9 °F 44% 29.84 in 10.0 mi SSE 21.9 mph - N/A   Clear
5:53 PM 69.1 °F 46.0 °F 44% 29.86 in 10.0 mi SE 20.7 mph - N/A   Clear
6:53 PM 66.9 °F 48.0 °F 51% 29.88 in 10.0 mi SE 19.6 mph - N/A   Clear
7:53 PM 61.0 °F 50.0 °F 67% 29.87 in 10.0 mi SSE 20.7 mph 27.6 mph N/A   Clear
8:53 PM 57.9 °F 50.0 °F 75% 29.86 in 10.0 mi SSE 16.1 mph - N/A   Clear
9:53 PM 55.9 °F 51.1 °F 84% 29.88 in 10.0 mi SSE 13.8 mph - N/A   Clear
10:53 PM 55.0 °F 51.1 °F 86% 29.86 in 10.0 mi SSE 12.7 mph - N/A   Clear
11:53 PM 53.1 °F 51.1 °F 93% 29.87 in 6.0 mi South 10.4 mph - N/A   Clear